STARLINK-3120, 49419

Orbit data source: Space-Track

STARLINK-3120, 49419 is a payload satellite owned by SpaceX/Seattle (US) in LEO that was launched on Sat, 13 Nov 2021 UTC via an FALCON 9 launch vehicle from the Air Force Eastern Test Range (AFETR). Payload-class satellites include a variety of spacecraft equipped with specific instruments for various scientific and technological missions. These include communications satellites like Starlink; space stations such as the ISS; scientific satellites like the Hubble; Earth observation satellites from companies like Planet Labs, Umbra, and HawkEye 360; GPS; miniature CubeSats for education and research; and military/defense satellites.

Loading next visibility...
Identifier
49419, 2021-104M
Orbit
LEO
Country
Flag of USUS
Related business
Manufacturer
SpaceX/Seattle
Mission
Operational Commercial Communications
Bus & Motor
STARLINK, Unknown motor
Mass
290 kg wet, ~270 kg dry
Launch date (UTC)
2021-11-13 (5 years ago)
Launch vehicle
FALCON 9
Launch site
Air Force Eastern Test Range (AFETR)
Object type
Payload
Rocket body
Debris
Shape & HBR
Box + 1 Pan, 10.1 m
Radar Cross Section
13.562 m², Large (>1 m²)

Expand to show TLE details & history
Last TLE update: 1 week ago

TLE from 1 week ago
0 STARLINK-3120
1 49419U 21104M   26152.48721812  .00000336  00000-0  39214-4 0  9999
2 49419  53.1908 212.9253 0001075  67.6626 292.4480 15.08834217251270
Epoch: 2026-06-01T11:41Z
TLE epoch observation values (Epoch: 2026-06-01T11:41:35.645Z)
Latitude
-0°
Longitude
147.55294°
Altitude
540.372 km
Speed
7.594 km/s
True Right ascension
14h 11m 42s
True Declination
0° 00' 00"
Sunlit
Object was in full shadow at epoch
Visualization orbit readout
Latitude
Unknown
Longitude
Unknown
Altitude
Unknown
Speed
Unknown
Apparent Right ascension
Unknown
Apparent Declination
Unknown
Sunlit
N/A
Visualization observer readout
Local Sidereal Time
17:37:52
Azimuth
Unknown
Elevation
Unknown
Doppler factor
Unknown
Orbital elements
Apogee altitude
540.754 km
Perigee altitude
539.267 km
Semi-major axis
6,918.147 km
Eccentricity
0.00011
Inclination
53.1908°
RAAN
212.9253°
Arg. of periapsis
67.6626°
True anomaly
292.43661°
Mean anomaly
292.448°
Eccentric anomaly
292.44231°
Mean motion
3.77189 °/min
Orbital period
95.44 mins
BSTAR
0.000039214
Loading maneuver chart data...
Computing Atmospheric mass density...
Loading historical data...
Loading historical data...
Loading historical data...
Loading historical data...
Loading historical data...
Loading historical data...
Loading historical data...

Documentation

Showing up to 5 results
|